{"data":{"norad_id":61865,"intl_designator":"2024-202W","name":"STARLINK-32401","alt_names":[],"object_type":"PAYLOAD","status":"ACTIVE","operator":null,"country":"US","launch_date":"2024-11-07","launch_site_code":"AFETR","launch_vehicle":null,"mission":null,"orbit_class":"UNKNOWN","rcs_meters":null,"size_class":null,"mass_kg":null,"dimensions":null,"purposes":["comms"],"wikipedia_slug":null,"has_3d_model":false,"image_url":null,"decayed_at":null,"tle_current":{"epoch":"2026-09-21T06:15:58.243392Z","epoch_age_seconds":122500,"freshness":"FRESH","line1":"1 61865U 24202W   26264.26109078  .00000153  00000+0  15092-4 0  9998","line2":"2 61865  43.0024 213.8578 0001214 270.1376  89.9336 15.27578025105241","mean_motion":15.27578025,"eccentricity":0.0001214,"inclination_deg":43.0024,"raan_deg":213.8578,"arg_perigee_deg":270.1376,"mean_anomaly_deg":89.9336,"bstar":1.5092e-5,"rev_number":10524,"period_min":94.266870590784,"perigee_km":482.22206119652,"apogee_km":483.88795861653,"semimajor_km":6861.1920099065,"source":"CELESTRAK","updated_at":"2026-09-22T09:00:49.443853Z"}}}